User: anonymous   Login
Location: Heidgraben
(53.7081°N, 9.6576°E)
Time: 17:43:43
(UTC+00:00)
Language:

Cosmos 1727 Rocket - Orbit

View from above orbital plane
View from above orbital plane
View from above satellite
View from above satellite

Ground track
Ground track

The orbit data is extracted from the following two-line orbital elements,

1 16511U 86008B   20270.83120687 -.00000011  00000-0 -27358-4 0  9995
2 16511  82.9441  51.7233 0024305 174.0511 350.9339 13.75799213740952
Epoch (UTC): 26 September 2020 19:56:56
Eccentricity: 0.0024305
inclination: 82.9441°
perigee height: 961 km
apogee height: 997 km
right ascension of ascending node: 51.7233°
argument of perigee: 174.0511°
revolutions per day: 13.75799213
mean anomaly at epoch: 350.9339°
orbit number at epoch: 74095

The dashed part of the orbit path shows where the satellite is in the earth's shadow,  

DLR